Wind_Speed
8 7 7 6 6 6 4 3 3 3 4 4 4 6 7 6 6 5 6 6 6 7 7 7 6 5 4 3 3 3 1 1 1 2 3 4 4 6 6 6 5 6 5 4 3 2 1 2 5 4 2 0 1 1 1 1 2 4 3 3 1 1 0 2 4 5 5 5 5 5 5 7 3 1 1 2 5 3 3 4 4 7 7 7 12 23 29 28
8 7 7 7 7 6 4 3 3 3 4 5 4 5 6 6 6 5 6 6 7 7 7 7 6 6 4 3 3 3 2 1 0 2 6 5 4 6 7 6 5 5 5 4 2 1 1 3 5 4 3 1 1 1 1 1 2 3 3 3 3 3 1 4 1 3 4 7 7 6 6 5 5 5 2 1 1 2 5 3 5 7 6 8 14 22 26 27
8 7 7 7 7 6 4 4 3 3 4 5 5 5 6 6 6 6 6 7 7 7 7 7 6 6 5 4 4 3 1 2 1 3 7 7 6 7 7 6 6 6 5 4 1 1 2 6 7 4 4 0 1 2 1 1 1 2 3 3 4 5 2 5 3 1 2 9 9 6 6 3 3 5 3 3 4 3 5 4 4 4 4 6 9 16 22 23
8 6 8 8 7 6 5 4 3 3 3 4 5 5 7 7 6 7 7 7 7 7 7 7 7 6 5 5 3 2 1 4 1 3 6 9 9 8 6 6 6 5 5 4 2 4 6 8 6 4 4 1 1 2 2 1 1 1 3 4 5 3 2 4 3 3 2 7 9 6 6 4 3 4 3 5 4 2 6 7 8 9 10 11 8 13 19 20
7 6 8 8 7 6 5 4 3 2 3 3 4 5 6 6 6 7 7 7 7 7 7 7 7 6 5 5 3 2 2 3 1 2 5 9 9 8 7 6 6 5 4 3 3 4 7 6 1 3 2 2 1 2 2 3 2 1 2 4 3 3 3 3 3 5 3 6 6 6 6 3 3 3 4 7 5 5 6 7 10 10 13 15 13 14 15 16
8 6 7 8 7 6 5 4 3 3 3 3 3 5 5 6 7 7 7 7 7 7 7 7 7 6 5 4 3 3 3 2 1 1 5 7 8 8 7 6 5 5 4 3 2 3 5 4 3 2 1 2 3 3 3 2 3 3 1 2 2 3 4 2 2 4 3 8 6 4 3 1 4 1 2 6 6 6 5 6 8 9 15 19 17 15 13 12
8 8 8 9 7 6 5 4 3 3 2 2 3 3 4 6 7 7 7 7 7 7 7 7 6 6 5 4 3 2 2 2 1 2 5 6 7 8 7 6 5 4 5 3 1 2 2 2 1 2 2 1 3 3 2 1 5 5 1 1 3 4 4 2 1 2 5 8 3 2 3 2 5 2 1 2 7 6 6 5 6 9 16 19 15 14 14 15
9 9 9 10 8 6 5 4 3 2 2 2 2 3 5 5 6 6 7 7 7 7 7 7 6 6 6 6 3 3 1 2 3 4 5 7 8 8 7 5 5 4 4 2 2 1 0 0 3 2 2 1 4 4 3 4 4 3 2 1 2 3 2 2 3 3 5 5 3 5 4 3 5 4 1 5 8 6 7 4 8 12 15 14 13 13 12 14
10 10 9 10 11 8 5 4 3 3 2 2 4 5 5 3 4 5 6 7 7 7 7 7 6 6 7 5 4 2 2 3 5 5 5 7 8 9 8 6 5 3 2 3 4 1 1 0 2 1 2 3 3 4 3 5 0 2 4 2 3 2 2 3 3 2 2 2 3 5 1 4 4 2 2 7 9 7 6 6 8 11 12 11 11 12 12 12
11 10 9 10 11 10 7 6 5 5 5 6 7 6 4 2 3 5 6 7 7 7 7 6 6 6 6 3 4 1 3 5 8 6 6 7 8 8 7 7 6 3 0 2 1 3 2 2 2 2 3 1 3 2 3 5 2 2 5 4 5 4 2 2 2 1 1 1 3 5 1 4 2 1 3 8 8 6 7 7 7 10 11 11 10 11 14 14
11 10 10 10 10 10 9 8 7 7 7 8 7 4 3 2 3 4 6 7 7 7 7 6 6 6 6 4 4 3 3 6 8 7 7 7 8 7 6 5 4 3 2 1 4 3 3 1 2 1 1 2 2 2 3 3 2 5 7 5 2 2 1 1 3 3 1 1 2 6 2 2 2 1 7 8 5 5 9 8 7 9 9 10 10 10 11 13
12 11 10 10 10 10 9 9 8 7 7 6 5 4 2 2 3 5 6 7 7 7 7 7 7 7 5 3 2 4 4 7 7 6 7 6 7 6 5 4 3 2 2 3 3 3 3 1 5 4 1 2 2 2 1 1 4 5 7 5 2 3 3 3 2 2 2 0 4 4 2 3 2 6 10 6 3 5 8 8 7 8 7 8 9 8 8 13
12 11 11 10 10 10 9 8 7 6 6 4 4 3 2 3 4 5 6 7 7 8 8 7 7 8 5 1 2 3 5 9 8 7 7 7 6 5 5 4 2 2 1 2 3 4 5 2 5 6 2 4 3 1 1 2 4 3 3 5 1 5 4 7 2 1 4 0 4 3 1 6 5 10 10 5 6 6 7 8 7 7 6 7 7 7 8 11
12 10 10 9 9 8 8 7 6 4 4 3 2 3 4 4 4 5 5 6 7 8 8 8 8 7 3 0 1 3 6 9 9 8 8 7 8 7 5 4 2 1 1 2 4 5 4 3 6 5 2 4 3 1 3 4 3 2 1 2 3 2 4 6 1 4 4 2 2 6 2 7 7 11 10 4 8 9 7 8 6 6 6 6 7 7 8 10
11 10 9 8 8 8 7 6 5 3 3 3 3 4 4 3 4 5 5 6 6 7 8 8 9 7 2 1 0 5 8 8 8 9 8 7 8 6 4 5 4 2 2 3 5 5 4 5 6 4 1 2 4 4 4 3 3 2 2 3 2 3 4 6 1 6 5 2 1 6 2 6 7 9 7 2 6 8 8 7 6 6 6 7 7 7 7 9
10 9 9 8 8 7 6 5 4 4 3 3 2 2 3 4 5 6 7 7 6 8 8 6 8 6 3 1 2 5 6 4 7 9 8 7 7 6 6 7 5 4 4 4 5 4 5 6 4 2 2 2 4 5 4 4 4 3 3 2 3 2 2 4 3 3 4 2 1 1 2 4 4 5 6 4 3 5 6 7 7 7 7 8 7 7 8 8
10 10 9 8 8 6 5 3 3 2 0 1 3 5 5 6 7 8 8 8 8 8 6 3 5 4 2 2 3 3 4 5 8 10 8 7 7 8 8 6 4 4 4 4 3 3 4 4 2 1 3 3 3 5 5 3 3 4 1 2 4 3 3 2 3 4 3 4 1 1 2 5 7 6 7 5 0 3 5 7 8 7 7 8 7 7 8 8
9 10 8 8 9 7 5 3 2 1 2 4 5 8 9 9 10 9 10 10 9 6 2 2 3 3 1 2 3 3 5 7 9 10 9 7 8 9 4 2 4 4 4 4 3 3 3 3 2 2 3 3 2 6 4 3 4 3 3 2 3 3 4 4 3 3 2 3 1 1 3 8 11 10 8 7 4 5 8 9 8 8 8 8 7 7 7 8
9 8 7 9 10 7 5 3 2 2 4 6 8 11 12 10 9 8 7 6 5 4 1 2 4 3 2 4 3 4 8 10 8 8 8 7 7 6 3 3 5 5 4 3 2 1 2 3 4 3 1 2 3 5 6 7 7 7 6 4 3 2 3 4 3 3 1 3 3 5 6 8 10 10 9 8 7 7 9 9 8 8 7 8 7 7 8 9
7 7 8 8 8 6 4 3 3 4 6 8 10 11 8 6 5 3 1 0 2 2 2 3 4 3 1 2 5 9 11 8 5 5 7 6 5 5 3 3 5 5 3 3 1 1 4 4 1 3 5 6 6 7 7 5 5 6 5 3 3 3 1 4 2 5 1 3 4 5 5 9 9 11 10 8 8 6 8 10 9 9 8 8 9 9 10 10
8 8 8 7 6 5 4 3 5 5 6 8 8 5 3 3 3 1 1 3 5 1 1 1 4 3 2 6 10 11 8 4 2 2 6 6 4 5 2 2 5 2 1 4 2 2 5 4 4 7 8 8 7 6 6 4 5 5 5 4 2 2 1 3 1 5 3 2 4 3 5 10 9 10 11 7 7 8 9 10 11 11 10 9 9 11 12 9
8 8 7 7 6 4 3 3 5 5 7 7 4 2 1 2 3 2 3 1 4 1 4 2 4 3 3 8 12 7 4 3 2 1 5 5 3 3 3 3 5 3 1 4 4 4 4 1 7 8 6 5 2 4 7 5 6 5 3 4 2 1 2 2 3 4 2 2 4 5 6 11 10 10 11 9 10 9 10 11 12 12 10 9 10 11 11 9
7 7 7 6 5 3 3 3 4 5 8 7 2 2 2 5 6 2 2 3 2 0 2 2 3 3 2 3 8 4 4 4 3 3 6 6 2 2 5 5 5 4 3 5 5 4 2 5 8 6 5 6 5 5 8 6 4 4 4 4 1 3 1 2 4 4 1 1 2 4 5 10 9 7 9 11 10 9 9 11 11 10 10 11 11 11 11 11
8 7 6 6 5 2 2 2 2 4 8 7 3 1 2 5 7 3 1 2 1 1 1 2 2 4 3 3 6 6 3 3 4 4 7 7 4 2 4 5 5 5 3 6 8 6 4 6 4 1 4 7 5 4 6 5 2 2 3 5 3 2 2 2 2 3 2 3 3 4 5 7 5 4 6 7 5 6 7 8 9 9 10 11 10 11 11 10
9 9 8 7 5 2 1 2 0 4 7 5 4 4 2 4 6 3 2 2 0 2 2 2 1 3 6 4 6 6 2 1 1 3 9 8 5 3 2 3 4 4 6 7 8 5 5 5 1 3 4 6 7 3 3 6 2 3 1 4 5 5 5 2 3 5 5 5 4 4 4 6 5 5 7 7 6 7 7 5 8 9 8 9 10 12 10 8
6 9 10 9 6 4 0 2 0 4 5 3 4 4 3 3 3 1 3 4 2 2 1 3 1 5 8 4 5 4 3 0 3 1 7 6 2 2 2 2 2 4 7 6 4 2 2 1 3 5 4 6 7 2 3 6 5 1 3 4 4 7 6 4 4 4 2 3 3 4 3 5 8 7 7 5 5 9 9 9 10 9 7 9 10 10 7 6
3 6 11 11 9 7 2 1 2 4 3 2 5 5 1 1 1 1 3 5 3 3 4 1 1 5 8 5 6 5 3 4 1 3 4 3 1 2 3 3 2 2 3 4 2 1 2 3 4 5 6 6 5 2 3 6 7 2 4 3 5 7 5 5 6 3 2 3 4 4 4 2 8 6 4 2 4 8 10 12 12 9 9 10 9 7 6 7
2 2 7 12 11 9 4 1 2 3 1 2 6 7 4 2 2 1 5 3 2 2 4 1 1 4 5 4 5 5 3 4 4 1 2 2 0 4 3 5 5 5 1 6 4 4 1 5 5 5 6 3 4 4 4 6 6 4 6 4 6 7 6 5 6 3 1 2 5 5 2 2 7 7 1 2 3 8 10 12 12 10 9 9 7 5 5 6
1 2 5 11 11 10 7 2 1 1 1 2 7 9 8 4 1 3 5 2 2 1 1 1 3 2 3 4 3 3 2 2 3 2 2 2 0 3 3 4 5 6 1 5 6 3 0 5 6 6 5 4 4 3 3 5 4 4 4 5 6 5 5 5 5 3 3 2 4 5 3 2 6 8 5 2 2 7 10 10 8 7 8 5 3 3 3 2
0 2 4 9 10 10 9 6 5 1 3 2 8 11 10 4 3 4 3 3 2 1 1 1 2 3 6 7 2 1 3 3 1 1 2 1 2 4 1 1 4 5 2 6 4 1 2 1 2 3 3 5 5 1 1 3 5 5 5 7 6 6 5 4 3 4 3 3 6 7 7 4 4 6 5 4 4 6 6 5 5 4 5 3 3 5 6 5
2 1 3 9 11 11 7 4 7 4 2 3 10 10 8 3 3 4 4 3 1 1 1 1 0 4 10 10 5 2 4 3 1 4 3 2 2 3 1 1 4 4 3 4 3 4 5 2 1 0 1 4 6 4 5 4 4 6 5 5 4 4 5 5 5 4 1 5 6 6 4 5 4 6 5 5 6 6 4 1 1 1 3 3 4 5 5 4
4 3 5 10 11 10 7 3 4 5 2 5 8 5 4 3 0 4 3 1 1 2 4 3 3 6 8 8 5 4 4 2 2 4 5 4 3 3 3 4 4 4 1 3 1 3 3 2 2 2 1 3 6 5 5 6 5 6 5 6 4 2 3 3 3 0 3 6 5 3 0 3 6 7 6 9 10 7 5 5 5 5 4 3 4 5 3 1
4 3 4 8 10 10 10 5 3 5 3 2 3 3 5 3 5 6 3 1 2 3 4 4 5 9 9 6 5 4 4 3 4 4 3 4 5 5 3 4 5 4 2 5 3 1 2 5 2 2 2 1 6 5 3 1 0 4 5 5 5 3 1 3 3 1 4 5 4 2 1 3 4 3 9 13 12 6 2 5 6 6 7 6 5 4 4 3
4 2 2 4 8 10 11 8 4 6 3 1 2 5 4 5 5 5 4 2 1 3 3 5 7 9 9 5 5 6 4 1 6 5 4 4 4 5 5 5 4 4 4 4 4 5 4 4 3 6 3 4 7 6 7 6 4 4 5 6 6 5 5 4 3 3 5 4 3 3 1 3 2 3 7 9 9 7 4 4 4 4 5 4 2 2 3 5
3 3 3 1 4 6 9 10 6 7 5 3 4 5 7 8 4 4 5 3 1 2 3 6 9 8 6 2 4 7 4 2 5 5 4 5 5 6 6 5 6 4 5 5 2 3 4 5 6 4 3 8 10 5 6 7 2 3 3 5 4 5 5 3 3 5 4 1 2 2 3 5 4 6 8 7 8 9 6 5 4 3 4 2 1 3 5 6
3 5 4 2 2 3 7 10 9 10 9 6 4 7 8 6 3 3 4 2 3 4 7 6 5 5 5 2 3 7 3 3 5 4 3 5 4 6 6 6 8 9 7 6 3 2 3 4 5 1 0 6 8 5 4 4 2 2 2 4 5 4 7 4 3 0 3 2 4 2 5 6 3 7 9 6 7 8 8 8 7 6 4 2 2 5 6 6
4 6 3 2 2 3 5 9 12 13 9 6 6 8 4 1 3 2 0 1 3 6 8 5 2 4 5 3 4 7 3 3 5 4 3 4 3 5 7 5 7 12 10 6 3 3 5 2 4 1 2 5 2 4 2 1 4 5 3 6 3 2 3 4 1 3 3 3 4 2 6 6 2 5 6 5 5 7 7 8 9 9 6 6 6 5 5 6
5 6 4 5 5 5 6 10 14 11 5 6 8 7 1 1 3 1 1 1 2 4 5 4 3 4 5 5 4 6 5 4 5 5 4 4 4 6 9 5 5 12 11 7 4 3 5 2 5 1 3 5 3 4 0 4 1 5 4 4 4 2 1 1 2 2 1 3 5 4 5 4 4 5 4 5 7 8 8 8 8 7 5 6 7 4 3 5
2 3 3 4 7 6 9 14 13 7 2 4 7 5 3 3 3 2 0 2 2 3 4 3 2 3 5 5 5 5 5 6 7 6 3 5 5 5 10 7 4 10 11 8 5 3 3 3 4 2 1 2 3 2 5 2 2 2 1 2 2 3 4 3 3 4 4 3 4 4 3 3 6 6 6 8 9 8 8 5 3 0 2 5 8 4 1 4
1 2 2 5 10 10 13 14 8 3 2 3 4 3 3 3 4 5 3 1 2 1 2 1 1 4 4 3 4 4 5 5 7 6 3 5 4 4 6 8 5 7 10 10 7 2 2 3 4 3 3 0 2 4 7 7 4 3 3 3 2 1 2 2 2 2 4 4 3 3 5 6 5 4 7 9 7 5 5 4 4 1 3 7 7 4 4 4
1 2 1 7 14 15 16 9 2 2 2 2 3 3 4 3 4 7 6 3 1 1 2 2 2 3 3 3 2 2 4 4 6 5 3 5 5 3 3 6 6 6 7 8 7 4 3 3 4 2 1 3 6 6 6 9 9 7 6 7 7 5 4 2 3 2 2 4 5 3 6 10 6 4 5 5 5 6 6 4 1 4 5 4 4 5 3 3
2 2 2 9 18 18 12 3 1 3 2 2 4 4 3 3 4 6 6 5 3 1 2 1 1 2 2 2 2 1 4 4 5 6 4 5 6 4 2 2 5 8 7 6 7 5 3 4 4 3 4 5 7 6 2 5 5 3 3 5 5 5 6 6 5 4 1 3 3 4 4 11 5 7 7 6 6 5 3 0 3 5 5 3 2 4 4 5
2 1 1 11 21 17 7 3 3 3 2 2 4 3 3 2 3 5 7 7 5 3 2 1 2 2 1 2 2 2 3 3 4 4 3 3 3 4 4 2 4 8 6 4 5 3 2 3 3 1 3 3 4 5 5 3 2 2 4 2 3 3 4 5 5 4 3 5 4 3 6 11 4 5 5 3 1 1 1 2 3 3 6 5 5 6 6 6
2 1 1 9 17 12 5 4 4 4 3 2 3 4 3 2 4 5 7 8 6 4 5 4 3 3 3 2 3 3 3 2 2 3 2 2 3 3 4 3 4 5 3 3 4 4 4 3 4 3 1 3 4 4 4 4 0 3 4 3 5 5 4 3 2 2 1 6 6 5 8 10 3 4 4 4 5 4 3 4 2 1 4 5 5 6 6 7
1 0 2 3 8 6 3 2 2 3 5 4 4 7 5 2 4 6 7 7 6 4 5 5 4 5 3 3 3 2 3 3 2 1 1 1 3 3 5 5 3 4 1 1 2 3 5 3 4 6 6 6 4 3 4 3 1 2 3 5 7 7 8 5 2 2 5 7 7 6 8 12 9 1 4 4 4 4 5 6 4 3 4 5 6 6 6 7
1 1 1 0 1 3 2 1 2 2 4 6 5 5 7 5 3 4 5 6 6 6 5 4 5 6 4 3 3 4 5 4 2 1 2 2 3 2 4 6 4 4 3 5 6 3 3 1 3 6 7 7 6 5 4 4 5 4 6 8 8 8 10 7 4 5 8 7 6 8 10 16 18 10 7 7 1 3 5 6 7 7 7 6 6 6 7 6
2 2 3 3 1 2 3 3 3 3 2 5 5 4 8 7 3 2 3 4 5 6 4 3 5 7 7 8 7 6 7 5 3 5 6 3 1 2 4 5 5 3 1 4 5 3 4 1 2 3 3 5 6 3 2 4 5 7 7 8 7 6 8 9 8 10 8 6 10 13 12 14 20 19 16 10 2 2 6 6 6 8 7 7 7 7 8 8
3 1 2 4 2 3 5 5 7 7 4 3 2 3 7 8 6 5 4 3 3 4 4 3 6 9 11 11 8 6 7 6 5 8 8 4 2 1 4 3 4 6 4 3 3 4 5 2 3 1 3 4 4 3 1 3 2 3 4 6 6 6 7 10 13 13 9 8 11 11 8 10 16 20 17 6 3 6 8 6 7 7 5 7 9 9 10 9
2 2 3 2 2 4 5 4 5 8 7 4 2 3 7 11 11 7 5 4 3 5 5 5 9 11 10 10 9 7 8 8 7 8 6 4 4 2 1 1 2 4 3 3 1 2 4 4 3 2 4 6 6 6 3 2 2 2 4 5 5 7 9 11 13 12 8 8 10 10 10 13 15 15 15 7 5 7 7 6 7 7 7 9 10 10 10 9
3 0 1 1 2 3 3 4 6 7 8 6 5 4 4 9 13 9 5 7 7 5 6 9 10 10 9 9 8 8 9 10 9 8 7 6 5 5 4 3 1 1 2 3 1 1 2 3 3 4 3 9 9 8 6 5 5 5 6 6 6 9 11 10 9 7 5 7 10 12 14 17 13 9 12 14 9 3 6 10 10 9 9 8 7 9 9 9
5 1 1 1 3 3 2 3 5 5 6 6 6 6 5 7 10 9 4 6 9 8 9 12 10 7 7 8 9 10 9 7 6 6 8 9 7 5 4 3 5 4 2 2 2 1 2 2 2 4 4 8 8 8 9 7 4 5 7 10 13 13 11 9 7 6 8 10 11 10 10 13 11 5 7 15 11 4 8 14 13 11 9 6 7 9 10 11
8 4 1 2 2 2 2 3 4 5 6 8 10 10 8 4 5 8 5 4 8 10 10 13 10 5 5 10 12 12 8 7 6 4 5 5 4 4 3 3 5 7 6 5 3 3 4 4 2 4 4 7 6 6 6 3 1 4 10 14 16 14 12 11 9 10 12 11 8 9 10 12 12 7 8 14 15 12 12 13 12 11 8 5 7 10 10 11
Wind_Direction
212 221 210 184 182 188 183 186 174 168 170 171 172 172 176 183 194 192 187 188 194 203 209 209 208 210 213 246 285 296 286 212 154 174 196 198 210 216 203 196 197 193 189 192 184 176 311 308 257 222 196 261 124 177 349 332 60 60 80 96 210 213 88 259 206 176 143 148 179 193 154 128 159 185 134 42 50 78 87 72 57 36 48 85 115 135 143 148
219 221 194 177 187 194 189 185 181 172 173 176 174 175 182 190 200 197 190 190 194 204 210 212 211 212 216 242 273 288 287 224 182 253 224 219 219 199 186 189 198 201 201 191 159 45 15 309 265 184 109 43 262 28 13 305 82 96 121 118 218 204 33 314 227 147 128 152 173 191 166 138 177 173 129 150 196 116 106 85 70 65 57 86 116 133 143 149
226 216 183 181 187 189 189 186 187 183 180 182 180 176 183 196 205 203 198 194 196 202 210 214 211 214 219 234 266 287 297 85 36 260 225 220 210 186 179 194 203 211 213 190 149 310 259 292 276 187 108 275 248 69 69 338 92 153 114 114 241 202 147 339 7 55 153 155 156 183 167 133 185 155 131 172 170 163 165 168 111 121 161 146 140 142 148 153
232 208 180 187 189 187 190 190 196 193 186 192 191 183 184 194 203 207 205 198 198 203 210 211 209 212 217 230 257 262 120 79 15 233 201 202 193 177 179 197 207 216 221 219 244 270 278 296 277 173 114 227 268 76 153 252 185 162 113 157 235 174 115 324 344 356 16 136 149 163 125 111 179 145 146 147 130 234 228 202 183 184 178 169 170 160 158 160
227 209 185 188 193 191 192 194 207 206 197 203 201 194 191 199 207 208 206 204 201 203 210 209 208 208 212 226 230 204 107 81 265 217 184 190 180 177 188 200 209 214 215 237 254 283 296 301 343 101 88 182 151 77 209 232 139 87 121 160 209 122 111 289 322 350 9 106 110 110 110 144 160 135 160 142 148 231 232 208 198 189 172 170 172 167 166 167
223 223 195 190 196 195 196 201 214 217 211 213 203 196 201 216 217 210 208 207 203 206 212 210 205 201 208 216 204 181 125 125 229 167 183 183 173 181 192 201 198 202 197 200 256 319 315 327 52 95 99 133 162 154 207 229 106 107 205 75 37 97 123 252 327 347 32 88 86 108 144 155 109 149 203 151 183 216 209 191 187 188 172 165 161 160 168 176
222 227 204 194 198 196 201 209 212 220 223 208 192 202 228 234 220 208 207 206 206 207 212 213 204 199 199 187 171 126 113 208 207 148 178 168 170 179 180 187 176 186 189 174 302 330 316 354 25 173 108 85 181 169 172 131 86 107 170 22 56 86 110 172 165 25 63 94 131 132 111 112 131 188 318 192 224 217 212 189 136 146 153 151 153 165 176 181
216 222 216 217 227 220 210 216 211 219 245 215 203 233 247 239 216 205 202 205 207 204 212 212 201 196 188 170 136 70 22 226 160 145 162 155 166 166 160 166 158 177 184 187 288 296 275 306 243 199 103 239 179 148 130 87 59 104 154 189 100 82 125 148 106 77 80 105 113 88 102 201 183 170 133 239 242 220 203 167 111 122 137 148 162 175 181 183
214 222 225 233 248 244 218 220 221 213 239 245 233 233 235 229 209 203 198 203 204 203 209 203 199 195 185 166 105 86 251 188 147 147 148 151 161 155 150 149 150 162 173 246 254 204 114 124 255 200 171 229 137 120 108 95 291 196 145 140 107 106 178 129 89 84 112 127 100 95 83 274 225 182 250 240 234 213 175 140 129 132 142 163 173 179 183 185
213 222 228 234 247 242 217 214 224 218 223 230 234 229 217 207 198 197 194 198 200 200 200 193 194 186 178 153 93 134 238 162 154 152 145 154 159 155 152 149 153 145 43 259 188 99 128 169 269 229 181 159 92 81 87 114 193 154 113 103 114 147 191 124 130 183 134 109 113 119 189 276 279 315 265 252 240 198 161 156 155 146 159 177 180 186 189 189
213 220 229 231 235 231 216 214 224 223 224 228 234 228 206 203 197 194 192 193 194 192 190 186 184 173 159 124 117 187 221 162 161 149 145 157 158 157 151 152 163 130 58 89 110 106 145 186 315 300 143 60 72 32 49 117 129 118 106 82 92 147 296 65 138 199 138 71 146 126 149 270 42 322 234 240 244 172 165 180 175 165 177 184 186 192 192 198
214 218 230 232 230 227 214 216 226 227 233 235 224 207 191 209 205 195 189 188 188 182 178 173 174 169 138 94 152 201 193 164 157 144 141 149 154 154 140 145 167 124 67 94 132 148 140 45 27 74 157 103 96 49 60 114 105 122 105 89 305 360 331 248 178 197 124 84 227 133 23 302 167 228 242 235 199 153 164 184 187 188 194 191 195 196 198 207
211 220 231 228 222 217 207 214 228 229 236 232 195 183 200 214 203 193 186 181 178 172 169 165 166 164 136 94 219 188 175 160 150 143 132 132 137 134 134 142 143 115 83 114 153 141 122 58 71 108 146 100 116 214 129 47 79 122 97 101 84 13 312 253 215 151 110 300 263 116 9 282 244 245 262 245 178 149 168 196 203 206 208 206 204 200 208 211
205 216 223 213 203 201 201 210 221 230 244 237 212 217 218 206 188 181 175 171 170 162 160 155 155 154 129 198 211 144 158 153 150 147 131 128 124 112 121 136 134 132 104 113 133 124 105 70 85 96 71 98 131 169 54 28 48 105 75 64 85 102 280 283 209 151 124 286 308 90 162 267 274 270 282 255 176 155 184 216 222 224 224 219 214 210 217 214
197 209 209 198 190 192 198 202 208 228 252 257 252 232 204 178 163 158 153 156 156 153 152 150 152 141 99 300 212 137 150 151 156 152 136 131 122 110 111 120 122 109 110 130 122 106 90 84 82 83 45 45 80 81 60 19 10 63 91 324 339 147 260 308 252 170 160 257 348 93 174 272 285 285 307 326 156 157 190 225 244 244 240 231 225 218 219 223
196 196 185 180 180 180 181 190 200 207 233 265 259 173 147 139 137 133 139 141 138 145 139 140 159 142 108 200 132 137 155 168 166 157 147 138 124 121 117 110 105 99 116 129 110 89 79 76 70 108 117 63 77 89 65 33 348 359 104 233 276 159 236 302 304 229 158 146 328 108 199 263 285 295 332 1 126 155 194 230 241 237 239 235 229 222 219 225
189 174 166 169 169 158 146 157 179 177 190 37 99 112 118 120 120 117 122 121 122 139 126 110 161 146 71 107 122 160 184 178 172 167 158 144 133 136 128 109 103 105 104 96 78 57 54 54 60 142 83 70 97 92 69 37 304 308 53 228 250 187 179 237 277 283 100 102 238 266 222 245 268 282 304 319 180 167 218 241 244 236 237 236 227 224 220 216
168 161 164 165 158 148 138 143 151 110 83 97 107 111 112 109 108 109 115 116 107 104 80 34 121 137 269 191 164 179 169 164 168 167 160 148 143 149 149 116 113 96 65 48 29 35 36 27 59 77 36 21 76 95 106 203 200 204 206 214 262 218 185 208 240 269 72 94 215 261 261 257 268 275 277 275 231 202 230 239 243 242 237 238 231 224 223 217
147 147 155 148 145 146 144 152 144 116 109 110 117 115 108 99 95 98 108 117 106 98 180 201 132 137 218 198 167 124 136 147 151 160 164 154 151 159 149 109 100 82 70 53 360 19 74 43 54 92 136 231 198 147 169 200 172 167 182 172 188 194 225 240 251 290 119 113 234 232 246 260 267 274 275 271 248 221 237 246 247 248 242 241 238 234 231 222
151 146 145 137 141 147 148 155 120 113 117 123 130 121 109 100 81 65 52 39 213 172 210 201 154 134 109 133 128 118 124 130 133 167 171 161 152 141 106 73 65 54 80 142 180 282 87 83 143 182 190 210 212 187 179 181 145 135 125 111 163 151 280 276 278 307 334 110 254 243 256 270 269 274 273 270 268 247 241 249 248 247 244 240 239 241 238 230
155 153 146 139 143 144 151 152 118 121 135 139 138 122 126 135 109 166 212 273 260 209 88 134 120 114 120 133 142 136 122 96 54 169 172 171 145 132 128 57 81 54 252 152 141 5 65 101 214 218 201 199 212 190 149 116 87 94 107 81 29 133 188 260 275 307 348 80 272 310 318 279 268 272 272 269 271 257 235 236 244 241 237 237 238 242 242 241
151 152 142 138 138 133 138 127 117 135 155 154 138 84 103 93 83 142 142 186 263 133 101 91 78 66 90 134 157 155 89 85 64 282 193 173 123 140 157 87 112 175 206 114 87 30 54 194 238 233 202 151 110 114 104 92 83 78 96 94 18 277 188 289 321 312 6 99 274 340 339 284 271 263 265 261 250 247 235 231 239 241 239 239 236 239 243 247
167 158 146 140 132 127 122 107 112 142 165 168 131 70 90 51 43 46 111 124 226 334 98 118 106 110 83 141 188 173 89 130 154 242 208 160 129 160 141 121 138 156 133 119 124 113 113 245 246 230 171 115 70 69 84 73 72 81 99 112 254 274 167 275 307 294 272 119 283 344 325 283 282 273 266 261 251 256 255 244 246 244 241 241 239 240 237 236
194 177 161 153 145 137 103 83 105 147 171 180 172 129 95 34 18 15 71 98 172 248 253 200 148 152 161 165 186 170 125 139 146 197 194 158 143 149 145 154 142 137 163 150 136 144 207 253 253 124 114 115 101 67 81 90 26 325 130 140 208 249 136 186 291 316 345 3 3 17 336 291 303 326 289 283 287 282 267 255 255 248 241 245 250 250 238 230
198 194 181 170 169 168 52 7 327 155 164 177 204 232 261 331 345 15 96 54 233 307 321 222 199 177 176 139 162 173 127 81 58 192 181 165 152 136 165 175 133 164 197 159 131 152 234 265 216 114 86 91 106 107 135 136 121 309 214 173 188 161 135 111 13 26 30 346 331 43 8 292 304 313 282 295 323 303 297 287 263 252 248 248 250 251 241 233
188 199 194 187 183 179 112 8 142 162 160 159 187 213 256 294 330 21 98 50 314 272 142 178 169 173 175 146 159 148 86 131 326 98 151 158 182 122 153 190 99 179 193 158 134 156 225 330 78 129 120 86 93 127 217 143 116 269 236 200 168 125 112 92 55 53 69 270 291 67 98 272 299 292 258 267 297 291 298 296 272 259 251 242 243 247 244 244
136 192 197 197 191 181 164 76 154 168 160 174 176 170 185 219 280 300 77 49 299 209 139 185 297 165 174 169 159 132 149 203 40 50 118 130 269 61 120 191 124 180 194 114 122 219 162 106 74 96 97 88 106 168 226 137 116 216 234 178 124 101 108 112 90 86 198 252 323 20 112 212 292 281 216 196 306 299 292 282 274 265 253 246 254 259 245 243
103 149 191 196 195 190 183 87 151 177 154 170 175 168 157 165 219 25 85 87 264 156 133 222 155 144 158 147 131 115 170 176 124 244 332 79 218 45 92 193 170 184 180 109 169 255 153 156 168 131 95 100 162 214 227 125 109 235 223 151 113 111 125 115 94 84 28 19 322 317 103 154 275 277 275 70 324 296 279 271 272 274 266 255 256 259 238 238
116 131 183 191 194 198 203 224 158 131 27 127 155 157 149 151 167 64 87 157 225 96 117 153 126 139 132 109 95 89 84 73 126 226 342 75 359 47 131 202 166 163 116 99 162 237 146 175 183 138 124 176 194 242 242 130 123 218 179 92 67 74 76 77 93 92 41 16 258 243 179 182 269 280 296 351 318 270 270 277 281 290 294 269 206 158 158 192
181 152 172 180 186 196 207 239 236 219 11 124 150 146 140 125 76 99 146 212 171 78 41 107 144 158 140 131 123 128 100 46 56 101 48 114 4 22 135 186 99 126 50 46 98 234 324 180 166 123 153 179 155 101 8 109 128 128 92 63 41 27 34 42 59 77 57 293 253 227 197 190 267 280 267 247 221 230 260 305 321 343 14 55 137 152 166 172
18 102 145 172 186 191 188 235 240 239 339 160 155 143 131 76 56 138 191 215 121 90 103 116 181 142 150 154 157 143 96 54 118 128 120 142 44 25 105 73 54 73 41 35 40 327 345 18 188 252 175 130 101 64 13 15 76 92 82 79 57 356 12 16 3 46 91 257 263 256 204 173 234 259 252 252 253 243 238 288 324 342 74 111 177 198 200 185
29 72 136 170 186 192 184 203 231 220 222 167 160 136 104 82 218 201 206 159 149 192 164 165 181 160 159 153 146 150 122 103 178 151 141 145 160 185 175 177 147 91 165 194 146 334 330 269 234 353 338 127 104 72 18 357 24 74 91 93 83 348 10 360 312 253 230 246 260 297 253 196 235 242 249 266 270 257 219 195 193 192 185 195 220 234 262 262
32 62 131 173 185 196 202 203 181 188 206 191 164 82 79 135 214 213 208 218 182 179 151 146 157 157 154 146 160 160 111 130 182 163 146 143 168 208 237 223 175 129 177 184 145 143 289 304 314 75 319 190 135 131 127 305 99 127 136 129 130 141 138 253 262 275 267 259 272 327 335 264 281 260 235 245 259 268 226 213 210 191 190 207 225 248 288 276
25 44 93 170 185 200 207 206 187 181 202 329 105 103 121 191 210 175 185 243 174 122 107 128 135 146 157 162 175 162 97 135 175 147 133 138 156 204 238 251 210 114 108 150 159 169 190 289 227 172 210 190 174 178 161 155 171 180 157 138 154 163 164 200 205 210 247 273 292 301 266 209 230 273 236 231 261 291 292 251 240 225 224 232 270 319 283 246
19 28 19 44 184 202 201 196 195 179 165 72 85 140 182 203 200 157 187 222 154 76 85 119 123 140 176 190 176 174 145 165 183 146 146 165 172 192 198 210 204 157 129 163 203 166 172 250 236 201 173 169 181 198 148 124 141 232 145 116 179 191 152 152 192 181 179 299 290 254 237 213 208 274 272 254 268 283 294 308 332 288 254 267 297 253 242 236
2 16 355 332 210 209 192 184 185 175 155 101 111 184 200 203 189 173 188 183 154 128 112 116 114 138 179 186 185 193 160 130 171 159 174 194 194 194 195 205 199 187 173 170 186 159 162 267 274 279 158 179 178 180 154 144 174 200 156 169 207 181 126 125 256 346 92 249 268 206 247 281 325 290 281 278 278 285 294 301 306 286 275 314 270 250 258 256
356 7 336 292 240 206 187 176 173 170 153 117 162 200 211 225 205 189 145 65 156 136 122 135 153 146 167 177 188 195 171 118 164 173 186 202 226 202 200 226 200 192 193 177 193 192 152 239 300 132 207 256 195 132 79 11 141 136 188 208 181 92 88 110 219 346 46 245 275 236 240 277 331 276 302 355 336 302 287 272 275 289 330 352 310 273 257 247
360 1 321 274 235 193 167 165 165 163 138 129 179 210 224 233 237 238 7 34 132 128 130 162 169 146 167 180 185 185 170 154 179 188 180 190 239 207 187 206 203 198 200 175 193 228 142 185 300 58 196 281 359 122 173 330 94 140 187 193 121 115 244 113 162 202 162 239 277 271 252 253 213 226 289 316 297 288 276 257 259 285 341 337 298 273 216 214
25 17 332 239 200 175 160 162 159 148 102 143 184 214 200 210 255 261 349 42 76 127 153 179 158 153 174 171 166 175 173 173 178 184 177 182 235 222 184 187 205 201 195 167 181 227 134 177 259 315 221 284 11 149 193 254 339 37 102 126 96 137 172 172 173 166 158 203 257 274 285 258 224 196 190 230 252 258 256 247 223 39 356 290 287 301 262 220
143 68 338 191 177 166 158 158 149 123 119 161 185 190 168 192 243 243 234 78 48 89 159 174 92 152 174 158 145 169 175 173 172 181 196 184 214 255 198 184 189 193 187 179 186 195 119 185 220 299 337 156 187 211 188 174 169 154 155 179 191 97 111 178 197 137 143 170 209 258 275 265 240 196 192 212 229 219 194 158 145 171 273 269 271 260 242 256
87 78 284 181 166 156 148 146 142 146 154 177 182 179 175 175 203 230 226 165 146 350 98 86 75 132 150 125 127 171 159 160 172 178 203 194 195 240 220 191 185 171 167 182 197 195 183 184 169 176 280 197 222 244 205 184 183 174 176 188 188 163 130 158 243 256 138 179 182 181 266 272 243 183 187 181 162 164 160 144 200 269 269 246 220 209 228 314
68 92 226 174 163 153 143 148 202 156 182 190 170 173 185 177 182 209 211 183 199 265 72 68 141 147 142 123 120 126 137 162 186 181 196 203 188 193 245 242 188 163 151 178 204 197 154 116 121 175 218 215 239 268 233 185 193 198 207 191 175 169 148 155 215 238 170 231 212 139 261 273 238 155 154 157 156 171 184 318 346 323 323 348 327 313 330 320
112 164 187 170 168 157 148 205 184 167 220 173 150 161 164 168 175 182 187 189 194 172 142 218 191 171 198 124 114 118 129 156 182 177 193 202 193 221 266 301 159 156 151 169 199 196 135 115 132 215 305 323 314 326 356 36 107 193 243 185 136 187 171 152 183 181 161 220 214 157 249 265 243 142 155 176 190 148 144 50 38 338 327 331 317 314 311 292
184 219 40 176 180 174 173 203 190 194 199 130 152 191 183 186 180 169 176 187 186 162 176 206 197 197 212 133 129 170 172 162 172 180 186 182 211 264 317 2 109 134 154 173 180 194 196 176 142 132 338 330 337 343 340 336 360 199 232 192 174 185 155 126 167 137 198 223 190 174 238 256 259 87 64 18 20 29 4 7 23 277 293 295 284 282 274 270
167 218 343 195 193 195 196 184 175 198 187 166 187 195 190 198 192 179 174 180 182 164 177 198 186 185 187 114 117 185 191 176 182 187 162 203 265 312 350 357 60 96 149 133 115 168 185 180 152 160 196 217 219 214 222 240 199 208 228 196 189 180 161 163 178 169 230 230 193 189 238 257 260 102 55 1 32 33 336 338 344 293 276 283 282 281 275 270
116 183 254 130 191 224 230 84 105 156 179 185 195 194 190 196 197 178 169 179 189 172 167 176 159 160 168 155 171 217 225 205 189 194 172 201 272 305 341 347 32 93 119 66 46 88 135 180 181 171 198 204 194 210 206 158 151 197 220 202 194 187 173 162 148 190 221 228 224 226 234 257 265 258 254 264 70 53 307 308 318 303 289 283 277 276 277 271
189 187 180 164 136 217 226 235 206 188 180 190 196 187 187 192 193 172 183 208 198 174 166 172 161 166 177 177 181 205 218 204 189 221 216 199 243 317 348 1 21 25 68 54 24 69 102 303 242 154 201 200 177 188 137 113 170 203 207 203 204 193 171 171 198 213 205 201 240 240 223 245 265 264 260 258 217 242 260 256 268 274 275 281 283 284 283 274
215 249 205 186 168 185 202 216 209 206 215 214 204 176 179 189 191 178 185 209 204 183 173 183 194 192 183 175 172 180 191 184 196 221 220 199 189 349 360 357 357 352 6 35 10 79 113 242 256 180 245 229 199 223 136 99 201 213 192 197 201 192 179 192 220 224 196 196 242 249 219 230 256 264 269 264 163 237 252 227 230 246 260 275 280 282 282 277
201 305 289 220 185 193 189 170 171 196 214 222 233 200 181 190 197 190 166 159 196 212 192 190 203 200 189 177 174 176 177 181 207 217 198 179 187 165 52 322 324 349 31 84 40 76 141 217 223 188 258 261 243 247 240 183 206 245 238 216 193 199 205 210 228 235 224 234 258 269 261 251 251 265 282 281 208 237 266 256 250 255 252 257 266 275 278 273
168 210 276 246 241 210 176 153 152 182 209 215 232 243 206 197 198 194 169 165 181 197 195 203 206 194 190 186 184 197 194 188 204 202 169 168 194 190 188 194 178 2 33 104 106 338 182 203 169 136 236 264 254 250 252 233 218 235 251 246 232 231 229 226 233 242 247 256 259 263 268 267 260 266 286 283 273 285 296 281 273 265 254 253 261 266 269 267
205 269 120 150 249 222 178 175 159 167 197 208 219 224 223 218 199 185 187 188 181 176 189 204 202 182 189 194 194 212 210 187 189 188 173 179 190 188 191 180 152 146 145 139 136 144 170 173 110 122 192 249 244 233 242 248 247 250 249 240 235 236 239 235 224 212 219 234 249 257 262 266 268 262 269 278 286 292 272 272 273 273 268 257 252 257 259 260
213 277 339 103 281 236 185 180 169 177 198 203 212 213 213 228 182 168 188 210 190 186 190 196 190 167 189 205 207 211 196 151 139 143 148 149 124 104 123 140 139 146 161 164 150 155 159 151 144 151 190 246 235 189 197 206 196 245 238 230 229 231 237 243 242 230 223 220 231 245 246 256 271 275 266 275 280 271 265 269 270 274 276 250 242 252 256 258
Height
775 775 776 777 778 778 779 779 780 780 780 781 781 781 781 783 783 784 784 784 785 785 786 786 786 787 787 788 788 788 789 789 790 790 790 791 792 792 793 793 794 794 795 795 796 796 796 796 796 795 797 798 800 801 801 801 801 805 813 822 826 826 824 820 817 815 816 820 820 818 818 820 823 820 818 818 821 823 824 825 825 825 825 826 826 826 829 832
774 775 775 776 777 777 778 779 779 779 779 780 780 780 781 782 783 783 783 784 784 784 785 785 786 786 786 788 788 788 789 789 790 789 789 790 791 792 792 793 793 794 794 795 795 796 797 797 796 796 799 801 801 801 803 802 802 809 816 822 824 824 821 817 815 813 812 816 817 817 818 818 820 819 818 822 826 825 826 828 828 830 831 830 828 829 830 832
773 774 775 776 777 777 778 778 779 779 779 779 779 780 781 782 783 783 783 783 783 784 784 785 785 786 787 788 788 789 789 789 790 790 789 790 791 792 792 793 793 794 794 794 795 795 796 796 796 797 801 804 803 803 805 804 805 809 815 822 822 819 818 817 816 813 810 812 815 817 817 818 818 817 818 823 826 827 827 828 829 831 833 832 830 830 831 832
772 774 775 776 777 777 777 778 778 778 778 779 779 779 780 781 782 782 782 783 783 784 784 784 785 786 787 787 788 789 788 790 791 788 788 789 791 791 792 793 793 793 793 794 794 794 795 795 796 797 801 807 804 804 807 806 806 808 813 820 818 815 817 817 815 814 812 810 813 815 816 819 818 817 818 822 827 829 826 823 823 824 827 830 831 830 830 831
772 773 774 775 776 776 777 777 777 777 778 778 778 778 779 780 781 782 782 782 782 783 783 784 785 786 787 787 789 788 789 796 793 787 789 790 790 791 792 793 793 793 793 793 793 793 794 794 795 798 803 807 807 807 808 804 804 809 814 816 815 814 817 817 814 814 813 811 813 815 817 818 817 818 818 821 826 826 821 817 816 816 820 824 826 828 830 831
771 772 773 775 775 775 776 776 776 777 777 777 778 777 778 780 781 781 781 781 782 782 783 784 785 786 787 788 789 788 791 797 791 787 790 789 790 791 791 792 792 792 793 793 793 793 794 794 797 801 804 806 808 808 808 804 803 812 816 814 814 813 815 817 815 815 813 812 815 817 817 816 818 820 818 819 821 818 814 813 812 812 815 818 822 826 828 829
770 771 772 773 774 775 775 775 776 776 776 776 776 777 779 780 780 780 780 781 781 782 782 783 785 786 787 788 788 788 791 792 788 788 789 789 791 791 791 792 792 792 792 792 793 794 795 797 800 802 804 807 808 808 806 805 805 811 816 815 815 814 815 817 815 815 814 814 816 815 816 817 819 820 819 818 816 814 813 811 810 811 814 818 822 824 825 826
769 770 771 772 772 773 774 774 774 775 775 775 776 779 781 781 780 780 780 780 781 781 782 783 784 785 787 787 788 790 791 789 786 788 789 789 791 790 791 792 791 792 792 793 793 794 796 799 800 801 805 807 805 806 806 807 809 811 814 815 815 815 816 816 815 815 815 815 816 815 816 818 818 818 818 817 813 812 813 811 811 812 815 819 821 822 823 824
768 769 770 771 771 772 773 773 773 774 775 776 779 781 781 780 779 779 779 780 780 781 782 783 784 785 786 786 788 792 790 786 786 787 788 789 790 790 791 791 791 792 792 793 792 794 796 799 799 799 804 804 802 805 806 809 813 811 812 814 814 816 816 816 816 816 816 815 815 816 818 818 817 817 817 813 810 810 811 812 812 813 816 818 819 820 821 822
768 768 769 770 771 772 773 773 774 775 777 779 781 781 779 778 777 778 778 779 780 781 782 783 784 784 786 786 789 793 789 785 787 787 788 789 790 790 790 790 791 791 791 792 792 793 795 797 797 796 799 801 803 807 807 809 812 810 811 814 814 816 816 816 817 816 815 816 816 817 820 818 816 820 818 810 807 809 811 813 813 813 816 817 818 818 818 819
767 768 769 770 771 772 773 774 775 776 778 779 779 778 777 776 776 777 777 778 779 780 782 782 783 784 785 786 790 792 787 786 787 787 788 789 789 790 790 790 790 791 791 791 792 792 793 795 794 794 799 802 804 808 808 807 809 809 812 816 817 817 816 816 817 817 816 817 816 816 819 819 819 820 814 807 806 807 810 812 813 813 814 815 816 816 817 817
766 767 768 769 770 771 773 774 774 776 776 776 776 775 775 775 775 776 777 778 779 780 781 782 783 784 785 787 789 788 786 787 788 788 788 789 789 789 789 790 790 791 791 791 792 792 793 793 792 797 801 802 807 811 809 806 808 810 812 818 822 820 820 817 816 816 816 817 815 814 819 819 820 817 807 806 807 806 809 811 812 813 813 814 814 815 815 814
766 767 768 769 770 771 772 773 773 774 774 773 774 774 774 774 775 776 776 777 778 780 781 782 783 784 786 788 787 786 786 787 787 788 788 788 789 789 789 790 790 790 791 791 792 792 793 793 793 797 799 802 809 810 807 806 809 813 814 818 825 828 824 817 816 817 816 818 813 815 824 819 816 812 805 806 807 807 810 810 811 812 812 813 812 813 813 812
765 766 767 768 768 769 770 771 772 772 772 772 773 773 773 773 774 775 776 777 778 779 781 782 783 784 786 788 786 785 786 787 787 788 788 788 788 789 789 789 790 790 791 791 791 792 792 792 792 796 799 803 806 807 809 812 813 816 819 821 828 834 828 817 817 819 818 819 812 816 828 820 811 810 806 806 806 807 810 810 811 811 811 811 810 811 810 810
764 765 766 767 767 768 769 770 770 771 771 771 772 772 772 773 774 775 776 777 778 780 780 781 782 784 786 787 785 785 786 786 787 787 788 788 788 789 789 790 790 791 791 792 792 792 792 792 794 800 803 803 804 810 816 819 817 819 825 830 831 833 829 820 818 819 818 819 814 817 828 822 812 809 806 807 807 807 809 810 811 810 810 810 809 809 808 807
763 764 765 766 767 768 769 769 770 770 771 771 771 771 772 773 774 775 776 777 778 780 780 782 782 783 787 788 785 786 786 786 787 787 788 788 788 789 789 790 791 791 792 792 792 793 792 793 798 802 805 806 809 814 820 826 826 823 828 834 832 830 832 827 820 818 817 818 818 819 824 821 813 809 807 808 808 808 809 810 809 809 808 807 807 807 806 805
762 763 764 766 767 768 768 769 770 770 770 770 770 771 772 773 774 775 776 777 779 780 780 782 782 783 787 787 787 786 785 785 786 787 787 788 788 789 790 791 791 792 792 792 793 793 793 797 803 805 805 809 812 816 827 838 836 830 830 832 830 829 833 830 823 819 817 819 821 821 823 820 812 809 808 808 809 810 810 808 807 806 805 804 805 805 804 804
761 762 764 765 766 767 768 769 770 770 770 770 770 771 772 773 774 775 777 778 779 781 782 783 783 788 790 786 785 785 783 784 786 787 788 788 789 789 790 791 792 793 794 796 796 796 798 801 806 809 812 813 814 820 831 836 833 830 831 832 830 828 829 826 823 821 819 820 822 823 825 820 813 810 810 809 809 810 809 807 805 804 803 802 801 802 801 801
761 762 763 764 766 767 768 769 769 769 770 770 771 772 773 774 775 776 777 778 779 781 784 782 782 788 788 783 782 782 783 784 786 787 788 788 789 790 790 791 792 794 799 803 802 800 802 807 811 816 819 817 816 819 823 823 822 823 826 829 828 828 829 827 825 824 821 822 823 823 822 819 814 812 810 809 808 809 808 805 805 803 802 801 800 799 798 799
761 762 763 764 766 767 768 769 769 770 770 770 771 772 773 775 778 780 780 779 778 779 780 779 779 782 781 780 781 782 784 786 787 787 788 788 789 790 791 792 795 798 803 806 806 803 804 813 818 818 817 814 813 815 815 816 817 819 823 827 828 828 830 829 827 824 820 822 822 821 821 819 816 812 809 808 806 807 807 805 804 802 801 800 799 797 795 794
761 762 763 764 765 766 768 768 769 770 770 771 771 771 772 773 777 780 780 779 777 776 777 777 777 778 779 780 781 781 783 787 788 787 788 788 788 792 794 795 800 805 806 805 807 805 807 818 819 812 811 810 809 811 812 814 815 818 822 826 827 828 830 829 827 824 821 823 823 822 822 818 815 812 807 806 806 804 803 802 800 798 798 797 796 795 792 790
762 763 763 764 765 766 767 768 769 770 770 771 771 772 773 773 774 774 776 778 777 776 777 777 777 779 779 780 780 780 783 788 790 789 788 788 789 794 796 798 804 808 806 805 809 813 817 821 815 808 809 809 809 810 811 814 816 819 823 826 827 828 830 830 827 824 822 823 823 824 824 816 811 810 805 803 802 798 796 795 793 792 793 794 793 791 790 789
762 762 764 765 765 767 767 768 769 769 770 771 771 772 773 773 773 773 774 776 778 777 777 777 779 780 781 781 780 781 783 786 790 790 788 789 791 793 795 799 804 807 807 808 812 820 825 819 810 808 809 808 811 812 812 815 818 821 824 828 829 828 830 830 827 824 823 823 824 825 825 816 807 806 802 798 797 795 793 791 789 790 789 788 787 786 786 785
761 762 764 764 766 767 767 768 768 769 770 771 772 772 773 773 773 774 774 775 778 778 777 777 778 779 780 779 778 781 783 784 786 788 787 789 792 793 795 798 803 808 809 807 811 817 819 814 809 809 808 808 812 814 814 817 822 824 824 827 828 826 828 829 827 823 822 824 826 826 824 811 803 805 799 793 795 793 790 789 787 787 786 785 784 782 781 781
760 762 763 764 766 766 768 768 768 769 770 771 772 772 773 774 773 774 775 778 781 780 779 777 776 777 776 777 779 779 781 783 784 785 785 787 790 793 795 795 801 810 810 808 812 815 815 812 810 809 808 810 813 815 816 818 825 827 826 827 824 824 827 827 826 824 826 831 828 828 831 817 804 806 802 794 794 790 786 786 784 783 783 783 782 778 777 779
760 762 762 764 766 766 768 768 768 770 769 771 772 772 774 773 775 774 775 787 789 782 781 780 777 776 774 776 779 778 784 787 785 784 785 788 788 790 796 797 799 806 807 806 811 814 813 811 811 810 811 813 815 818 818 819 827 830 829 828 824 822 826 826 826 828 833 837 831 830 839 833 813 803 800 796 794 791 786 784 780 780 781 778 776 774 776 778
760 761 762 764 765 766 769 768 770 770 770 771 770 772 774 772 775 773 779 801 796 776 779 782 777 774 773 776 776 779 789 789 786 787 786 788 788 788 796 800 800 802 801 805 814 816 813 812 814 813 813 818 819 820 819 818 826 830 828 827 823 821 825 827 828 832 835 837 835 833 837 843 828 803 795 797 795 793 788 783 778 777 777 775 774 775 776 776
761 762 762 764 765 767 768 768 770 769 770 771 769 772 773 772 776 772 785 809 793 768 773 778 775 773 773 775 775 780 786 783 787 792 787 788 790 789 796 800 799 800 799 805 817 819 814 812 814 813 816 821 820 820 820 818 823 827 826 825 822 822 826 827 829 834 839 839 839 838 836 844 836 806 796 800 798 794 785 778 777 775 775 774 774 775 775 775
761 762 762 764 765 767 768 768 769 769 770 770 769 772 771 773 775 774 792 802 778 763 771 773 774 775 775 778 780 782 784 784 788 791 789 789 790 790 796 797 796 799 801 804 812 817 816 815 815 814 815 818 820 824 823 817 819 824 826 825 824 826 828 830 833 834 840 842 840 839 835 840 834 809 799 801 796 790 781 775 778 777 775 774 773 775 775 775
762 762 762 763 765 767 768 769 769 769 770 769 770 771 771 775 777 787 805 793 766 767 775 773 776 777 777 783 786 785 785 789 790 790 791 791 791 791 793 795 795 800 806 809 814 818 817 817 817 815 815 817 821 826 826 820 820 822 825 826 828 832 832 835 839 837 841 843 838 836 832 835 836 813 799 798 790 784 780 778 780 778 776 776 775 775 774 774
762 762 762 763 765 766 767 769 769 769 770 769 770 770 772 778 783 796 802 777 762 774 778 777 780 778 778 783 787 787 788 792 792 791 794 795 795 795 796 799 800 807 814 814 818 822 818 817 818 816 817 819 820 823 826 824 823 823 824 828 833 837 839 841 845 846 847 844 838 839 837 839 839 814 793 792 786 782 782 779 779 779 777 776 775 774 775 776
762 762 763 763 764 765 767 768 768 770 770 769 771 770 773 786 792 792 784 766 765 776 775 777 780 779 780 782 785 788 789 794 793 792 795 798 800 799 798 800 801 812 822 820 821 824 820 817 819 818 818 818 818 824 830 827 825 826 826 831 839 847 850 849 852 853 851 845 840 840 839 835 828 805 789 787 780 779 782 779 777 779 778 776 775 775 777 779
762 762 763 763 764 766 767 767 769 770 770 770 771 769 776 792 791 779 773 767 768 770 768 772 776 777 781 783 786 788 788 792 793 793 795 797 801 801 799 798 796 803 814 819 823 826 824 823 822 821 820 816 815 822 831 831 828 827 825 829 838 850 857 855 857 858 850 842 841 843 839 828 814 797 788 782 774 775 780 779 777 778 776 775 776 776 779 781
762 762 763 763 764 766 766 768 769 769 770 771 771 773 783 791 780 769 771 769 765 765 766 771 776 779 781 782 785 785 787 793 793 792 796 799 804 805 801 800 798 797 804 816 824 824 826 825 820 818 816 814 813 815 818 821 825 826 823 826 830 836 843 846 849 848 841 839 844 845 837 821 806 793 786 782 778 777 779 780 780 779 777 776 777 778 779 779
761 762 762 763 764 766 766 768 769 769 771 771 772 778 784 781 771 769 770 766 764 766 769 770 776 783 785 783 783 781 784 793 794 793 797 799 802 803 799 798 798 796 800 812 820 822 824 819 812 810 809 808 811 811 810 816 826 828 825 827 828 824 825 834 841 840 839 843 844 841 829 813 800 789 782 783 780 778 778 778 778 778 777 779 779 779 778 777
761 761 761 762 763 765 766 767 769 770 770 772 778 780 774 768 768 767 764 762 763 766 772 776 778 784 788 786 785 783 781 787 793 796 798 799 798 798 796 792 790 792 793 800 811 817 820 818 813 812 811 809 809 810 809 813 820 826 828 826 824 820 818 828 842 844 844 844 838 833 821 807 802 792 780 781 780 776 777 776 773 773 776 777 776 776 777 776
761 761 761 762 762 764 765 766 769 770 771 777 784 779 770 768 768 765 762 762 762 762 771 780 779 781 787 788 787 785 781 784 791 794 796 799 795 791 792 788 784 786 785 788 798 802 807 816 817 816 815 813 812 811 811 811 813 821 826 821 818 822 821 824 837 845 849 848 838 828 818 809 810 800 782 780 781 778 776 774 771 772 773 773 772 775 778 776
762 762 762 761 762 763 765 766 768 770 772 780 785 780 777 775 769 766 766 764 762 762 768 776 775 775 781 785 786 784 782 785 791 792 793 797 791 781 784 785 781 783 781 783 791 792 796 809 819 821 819 816 812 812 815 815 813 814 817 815 817 827 830 830 836 841 847 850 837 823 818 813 808 800 786 781 780 776 774 773 773 774 775 775 773 774 776 776
762 763 762 760 761 763 765 766 768 770 774 780 783 780 780 778 771 768 767 766 765 764 766 770 771 771 775 779 780 782 782 783 789 791 790 793 787 777 776 778 778 781 780 782 788 789 792 803 815 822 821 818 815 815 817 819 817 815 815 817 818 822 827 827 831 833 837 845 837 824 819 809 795 790 786 781 776 774 774 774 775 776 776 776 773 771 774 776
762 764 762 760 761 763 764 766 768 771 775 778 779 777 776 775 771 767 766 768 770 768 768 769 769 769 772 775 777 779 780 782 786 788 786 786 784 778 774 773 775 778 779 781 785 787 792 798 810 821 823 821 817 812 812 814 815 815 817 820 820 822 826 825 826 827 827 834 837 832 824 804 785 780 777 774 775 775 776 777 776 777 777 776 773 772 774 774
763 765 763 760 761 762 764 768 769 771 774 775 775 774 772 770 768 767 766 768 771 771 771 771 771 771 772 774 776 777 779 781 784 785 783 782 782 778 774 771 771 775 779 785 786 786 792 799 809 822 824 818 810 806 806 805 806 808 810 813 814 816 823 828 831 828 822 824 828 832 826 798 777 774 771 772 776 774 774 776 775 776 775 774 774 773 773 771
764 765 762 760 762 762 764 768 769 769 770 770 769 768 767 766 766 766 766 769 771 772 773 773 774 774 773 774 776 778 778 780 782 783 780 779 778 776 773 769 768 771 776 784 785 780 786 797 807 816 818 812 807 806 807 804 802 804 806 807 809 811 814 821 828 827 824 822 821 829 826 793 767 768 770 772 774 771 772 773 771 772 770 769 771 770 771 772
765 764 761 761 762 761 765 769 768 768 767 764 762 762 762 762 764 765 766 768 771 771 773 774 772 772 772 773 776 778 778 779 782 781 779 778 776 773 771 768 767 769 772 779 782 779 783 794 803 810 813 811 807 806 806 805 804 807 807 807 811 811 809 811 818 820 822 821 819 830 829 794 766 766 768 769 771 769 770 769 768 770 770 770 773 772 773 775
764 763 761 761 761 761 764 766 764 765 766 763 762 763 762 761 761 763 765 767 768 769 772 773 771 771 771 772 774 776 776 778 781 781 779 780 776 772 770 767 767 770 772 775 777 776 783 792 798 808 815 815 815 814 812 809 809 809 807 807 808 808 810 813 816 819 822 817 816 826 823 793 770 769 769 770 771 770 770 773 772 773 772 773 775 774 775 775
764 764 762 761 762 762 763 763 762 764 766 765 765 763 762 762 760 760 762 763 764 765 768 769 768 769 771 773 776 777 776 776 779 781 782 781 777 772 771 769 767 770 773 774 771 771 781 789 792 801 811 814 815 815 811 808 810 810 806 805 806 806 810 812 815 822 823 815 813 818 811 787 771 773 775 774 775 775 774 776 777 775 775 775 775 775 775 774
764 765 764 763 764 763 763 762 764 765 765 765 766 763 762 763 760 758 761 762 762 762 765 765 765 769 774 776 778 779 778 776 778 781 782 782 780 777 776 773 770 771 773 774 772 774 784 790 788 791 797 799 801 803 802 801 804 806 803 802 804 806 806 808 815 819 815 812 814 810 802 789 777 775 778 777 779 779 776 776 776 775 775 775 775 775 774 774
764 762 760 762 765 765 765 764 764 765 763 763 763 760 761 763 761 761 763 763 761 761 763 763 764 768 772 774 777 779 778 778 781 780 780 782 781 780 779 777 775 775 773 774 775 778 787 792 791 791 793 794 796 798 799 800 800 800 801 802 804 807 807 809 809 805 804 812 812 799 796 797 785 773 774 778 781 782 779 778 777 775 774 774 773 773 772 771
763 760 755 755 759 762 764 762 762 763 764 764 760 755 758 762 761 762 764 763 761 760 762 765 764 764 765 767 772 777 779 782 784 780 778 781 782 782 782 780 780 781 778 777 779 779 787 794 793 793 795 795 796 797 798 801 801 800 801 803 803 806 808 808 804 798 799 807 802 792 795 799 786 771 770 777 781 779 776 777 776 774 774 773 772 771 769 769
762 761 755 752 753 755 756 756 759 763 765 766 762 756 755 759 759 758 758 762 764 762 761 764 764 762 763 764 767 772 776 779 781 779 779 781 781 783 785 783 784 785 781 781 783 783 787 794 793 794 797 795 796 798 799 802 805 803 802 802 802 803 804 803 801 798 800 803 799 795 798 795 783 775 772 774 777 776 774 775 775 774 773 771 770 770 768 768
759 760 757 754 752 752 753 754 757 762 763 764 764 759 754 753 755 754 753 757 763 762 761 762 761 761 763 764 766 768 768 768 770 773 775 779 779 780 782 781 782 787 786 784 787 788 790 794 795 797 801 799 795 797 799 801 804 805 804 803 802 801 800 801 802 801 803 804 799 798 799 789 776 774 773 768 770 774 774 772 770 770 769 770 770 769 767 766
756 757 755 756 755 752 753 754 755 760 763 763 762 758 754 751 750 751 752 752 754 757 758 759 760 761 763 764 766 766 764 763 765 767 768 771 773 773 775 777 778 783 787 787 789 790 792 798 800 801 806 801 794 796 800 800 804 809 807 803 800 798 797 797 798 798 798 798 796 799 800 786 772 773 774 767 767 774 774 769 766 765 765 768 769 766 764 762
755 756 755 758 758 753 752 753 754 757 758 755 753 751 750 750 748 749 752 751 749 750 752 754 758 761 764 766 763 761 761 763 766 768 768 768 770 771 773 777 777 778 783 787 789 790 791 797 801 803 805 799 792 794 799 803 809 809 799 792 791 793 793 793 793 791 789 791 795 795 789 778 770 772 774 769 766 769 769 765 762 762 763 766 765 763 761 758